RH
78 82 85 80 87 93 98 97 97 70 73 98 88 82 65 58 40 38 39 29 37 28 29 31 27 28 38 20 26 32 46 57 78 50 35 23 25 38 46 71 46 60 79 55
80 85 87 84 82 90 95 96 84 77 70 78 88 63 62 56 49 42 36 36 34 32 30 36 32 45 43 41 34 36 41 45 62 44 38 34 32 28 27 40 61 56 73 54
86 80 85 88 81 87 93 97 95 97 91 48 63 63 58 64 47 45 34 30 32 33 34 33 33 52 47 46 44 63 49 40 46 55 40 38 42 40 30 38 75 58 54 43
86 75 82 82 83 84 96 99 74 74 96 87 60 54 49 59 58 42 35 33 32 35 40 40 36 51 50 47 59 47 44 45 41 33 33 31 31 34 32 29 42 52 43 37
75 76 80 77 83 82 98 98 69 80 81 70 75 59 59 52 45 42 37 39 32 32 38 40 39 42 49 49 54 46 43 56 50 57 40 37 41 34 34 31 32 33 31 33
78 79 77 80 85 84 97 80 76 73 80 78 79 58 52 54 45 41 30 34 39 42 40 45 43 44 46 44 54 54 55 61 73 73 48 44 57 41 35 36 34 36 39 34
80 80 78 80 84 84 94 70 77 91 81 78 69 49 43 51 46 49 33 35 42 48 43 46 52 48 48 56 57 49 66 65 82 82 74 57 40 26 23 27 28 28 27 27
83 82 80 81 84 82 92 85 91 98 100 63 58 46 48 48 46 44 44 51 42 48 57 75 72 80 57 56 43 45 60 78 88 76 83 53 35 30 34 34 40 34 37 35
84 83 82 79 86 87 97 87 97 99 98 78 45 43 48 58 64 81 74 64 62 52 77 86 77 86 61 62 49 52 52 70 72 91 85 72 55 31 30 30 64 43 42 46
87 84 81 83 82 85 92 94 90 99 100 65 58 47 51 51 82 92 89 76 73 69 100 99 86 76 50 76 75 78 89 85 84 96 92 77 43 31 37 51 64 48 45 49
89 84 82 86 85 82 89 91 90 98 98 86 62 42 50 63 75 86 82 88 81 89 91 92 91 93 73 71 66 76 77 94 96 97 98 82 34 36 50 64 52 48 48 54
86 88 91 90 88 88 86 94 85 90 99 96 84 70 74 58 61 80 88 76 72 81 88 97 99 98 98 79 82 57 80 80 86 76 83 61 41 48 56 56 60 60 63 66
91 90 89 90 90 89 88 90 95 97 98 93 91 85 69 57 55 55 81 91 64 64 83 96 99 98 92 88 87 70 55 46 68 57 50 43 62 58 57 60 65 57 55 59
91 92 91 90 89 87 91 95 96 99 98 100 93 64 76 67 62 63 58 64 75 81 92 99 99 99 78 93 72 76 64 50 51 54 66 68 64 65 62 59 58 58 56 57
92 92 92 91 92 93 95 98 98 98 98 98 99 73 62 67 63 64 69 72 79 93 87 100 98 91 89 90 84 86 56 58 74 88 74 72 74 66 62 64 63 62 68 73
89 90 90 91 97 96 98 96 88 94 96 100 100 83 77 64 71 68 66 77 76 92 97 99 90 76 88 98 95 66 65 65 68 74 64 73 73 72 69 74 73 72 75 76
90 90 94 98 97 96 93 97 98 98 98 99 100 98 82 76 79 92 85 83 92 92 95 98 90 86 96 100 94 69 64 61 63 62 69 81 75 87 78 77 75 74 75 79
94 94 98 98 98 98 95 89 94 96 92 90 99 100 96 80 96 99 95 96 95 95 96 96 98 96 98 94 77 65 62 63 67 69 68 75 76 74 75 69 73 82 86 86
97 97 98 98 99 100 93 90 90 95 89 99 100 100 100 81 95 97 95 91 100 92 100 96 91 97 97 83 77 76 70 74 75 70 72 75 78 72 72 78 84 87 90 82
96 94 99 100 99 90 85 85 88 92 95 95 100 97 100 87 100 100 100 100 98 97 98 92 100 99 81 83 80 78 75 69 76 88 94 88 82 74 75 84 80 71 74 79
95 99 100 99 93 92 91 98 94 96 100 94 97 96 99 92 99 99 100 99 98 100 98 96 99 99 89 78 77 75 70 74 78 80 76 71 70 80 80 77 82 87 93 98
92 92 95 95 93 96 94 100 99 99 100 98 100 98 95 98 93 98 98 95 99 98 92 98 94 97 90 82 80 76 73 73 72 67 70 70 65 66 72 79 89 94 97 98
85 89 95 92 100 99 92 99 98 99 100 100 100 100 100 96 94 100 98 91 97 95 95 89 98 94 88 82 76 77 71 70 69 66 71 74 80 83 86 92 92 92 88 91
97 100 98 100 99 99 99 99 100 100 100 100 100 100 100 100 99 100 91 100 93 98 99 93 99 97 94 79 73 69 71 77 75 77 84 91 92 97 95 91 89 90 89 90
98 95 99 99 100 100 100 100 100 99 100 100 100 100 95 100 98 100 99 99 94 94 97 100 99 98 85 81 76 78 79 82 81 80 88 92 92 88 88 88 85 87 91 92
98 98 99 99 100 99 99 100 100 99 100 100 99 100 97 99 99 97 98 94 98 100 100 99 98 94 93 83 80 75 78 81 86 88 89 91 89 86 81 84 85 91 87 90
99 99 100 100 99 100 100 100 100 99 100 100 100 96 100 98 97 99 99 100 100 99 99 98 98 98 97 98 95 89 84 86 89 91 89 86 82 79 78 70 72 79 72 88
Wind_Speed
28 23 22 27 24 21 18 4 7 10 14 7 5 15 17 13 20 17 11 4 1 7 7 7 9 8 2 5 10 9 9 6 5 19 17 9 5 5 2 6 4 2 6 7
29 22 17 25 26 27 8 5 5 7 15 13 13 7 18 22 21 20 7 3 3 3 7 8 10 5 5 7 5 6 3 2 4 3 3 4 4 4 5 4 4 4 7 7
28 24 21 21 27 30 9 4 7 7 11 8 19 17 17 22 14 21 18 8 6 5 5 3 7 3 2 4 4 2 4 1 7 7 7 2 5 5 5 5 5 3 6 5
27 28 26 22 25 29 10 5 9 9 13 19 13 18 14 19 18 16 9 8 9 7 6 2 5 5 3 3 0 2 4 4 1 5 5 3 4 5 6 4 6 8 9 7
29 29 27 26 26 28 13 3 7 6 4 17 16 20 21 24 19 17 16 12 10 8 6 8 8 8 5 6 2 5 1 3 3 2 6 7 3 5 8 6 5 1 4 6
29 29 27 28 25 28 5 6 7 5 8 18 18 21 23 22 15 13 15 10 7 8 6 6 5 6 7 8 9 6 7 5 4 2 4 6 7 7 6 6 4 3 3 4
30 30 29 29 26 32 2 8 3 5 9 15 20 21 22 21 24 14 13 9 8 3 11 9 9 12 10 11 9 3 6 6 4 3 4 2 11 1 5 6 6 8 9 7
31 29 29 30 29 32 10 3 4 2 3 15 16 23 24 20 15 19 6 1 9 11 6 6 4 7 7 1 3 4 4 5 3 6 4 5 7 2 2 5 4 6 8 8
29 28 30 30 30 24 7 10 5 4 4 11 20 26 19 13 10 2 2 8 4 5 5 4 6 5 7 4 2 9 7 6 7 2 5 7 8 3 4 4 2 4 8 8
29 31 29 30 26 23 7 4 9 4 4 5 8 19 23 13 6 5 2 5 6 4 4 3 4 2 8 6 9 4 4 4 6 2 2 8 5 5 0 7 7 4 7 6
20 24 26 23 21 24 12 8 9 4 5 7 4 12 11 6 7 8 6 6 6 2 5 5 3 4 5 4 8 9 7 7 4 4 3 6 6 3 7 7 3 7 6 5
25 25 23 24 24 21 15 7 8 6 2 7 12 5 4 5 13 11 2 9 6 7 5 3 5 3 3 3 3 3 2 8 8 8 8 7 4 9 6 9 7 5 8 8
23 22 22 22 24 22 20 8 5 3 4 8 5 2 6 9 11 12 9 3 11 2 5 5 3 5 5 4 5 3 2 4 4 6 3 5 13 10 9 11 13 14 12 8
21 20 21 20 22 24 17 6 4 2 3 3 2 3 2 3 5 11 10 7 1 7 5 5 4 5 4 5 5 5 5 5 5 3 10 14 10 7 11 12 16 16 16 14
21 19 18 19 15 15 8 4 4 4 3 2 3 2 4 2 5 10 11 8 7 4 4 4 3 3 6 2 4 1 1 5 5 5 4 11 6 10 13 16 14 13 15 15
18 18 18 15 19 17 5 4 8 9 4 3 2 3 9 2 5 8 10 4 4 4 5 2 2 2 6 5 3 1 6 9 5 5 12 17 14 14 13 15 13 13 13 11
19 18 17 19 23 8 8 7 4 2 8 8 1 4 3 3 6 5 5 6 3 4 3 3 4 2 5 3 5 6 10 10 9 10 18 10 3 9 11 13 13 15 13 12
19 21 21 18 13 11 2 13 12 8 3 5 5 2 6 6 4 3 4 3 4 6 2 3 3 4 3 3 5 8 12 13 12 12 13 15 16 14 12 11 12 12 10 7
22 21 22 9 1 5 6 4 8 1 6 6 4 5 3 3 3 3 5 4 4 2 2 2 5 0 2 3 10 8 8 7 10 14 16 14 14 13 11 11 9 9 6 7
28 13 6 3 4 5 5 5 6 7 4 4 4 2 2 3 3 2 3 2 3 3 3 2 4 2 4 6 7 7 9 13 13 15 9 12 11 12 13 9 8 10 10 10
2 3 3 2 6 3 5 4 5 2 5 3 2 2 3 3 4 3 1 2 1 4 4 5 1 2 4 5 6 4 9 11 6 9 11 11 12 13 13 12 11 10 9 9
6 7 4 3 6 5 7 5 4 6 2 3 3 3 2 1 3 4 0 3 2 2 3 4 3 1 7 7 6 5 11 11 11 12 14 13 12 13 13 11 11 10 8 8
4 6 6 4 5 8 4 2 2 3 2 2 1 2 0 3 4 3 2 3 2 2 3 4 2 5 5 6 8 10 10 13 15 15 15 15 13 12 12 10 9 11 10 7
7 5 7 5 3 4 2 2 3 1 1 2 4 1 1 1 4 1 5 1 2 3 3 5 3 8 5 8 8 12 13 12 14 13 12 12 12 11 10 10 8 9 9 7
7 6 5 4 1 1 0 1 2 3 2 3 2 3 2 2 4 3 4 2 3 4 4 2 5 7 10 10 10 10 12 12 11 10 10 11 11 11 10 8 8 9 6 6
6 8 3 2 1 3 4 4 2 3 3 1 2 2 3 3 3 2 1 5 3 1 2 3 8 9 9 10 10 10 9 12 9 9 9 9 11 10 9 8 7 5 6 6
5 4 4 3 4 4 3 3 3 2 1 2 2 4 2 1 2 3 4 3 2 3 4 4 8 9 12 11 10 7 12 12 10 9 9 9 9 10 7 7 5 6 5 5
Wind_Direction
224 216 212 201 179 173 167 195 191 157 151 169 203 219 211 247 257 263 276 258 266 198 222 186 189 225 64 156 148 140 201 134 146 224 244 207 176 193 190 121 263 185 141 272
213 194 214 199 183 178 167 195 163 176 161 197 210 204 223 243 256 258 273 197 210 276 223 119 235 113 340 17 84 150 154 195 136 333 300 303 226 213 219 146 83 180 124 261
203 195 213 206 193 183 186 192 173 161 211 214 189 193 209 225 249 262 258 228 256 271 270 184 200 126 43 35 89 145 108 128 147 187 213 159 330 262 255 148 109 201 208 272
207 196 204 212 202 191 204 197 201 178 189 208 192 187 206 215 228 219 241 242 212 201 221 251 173 98 97 74 135 100 109 163 303 295 309 252 230 299 315 245 202 147 232 225
203 198 193 215 204 195 204 189 199 157 180 178 207 186 212 206 220 237 234 231 209 214 187 194 203 132 155 177 190 153 177 200 118 310 335 14 1 303 307 301 303 226 227 243
200 197 195 203 206 194 178 221 287 191 177 176 191 204 201 211 211 244 236 207 202 198 186 112 120 128 125 155 147 184 140 128 86 248 351 8 346 244 237 246 280 256 286 327
198 197 199 197 208 201 228 205 295 194 196 188 200 194 203 202 224 230 226 195 170 174 115 56 29 48 47 75 349 148 142 114 97 183 39 39 242 243 131 108 65 71 73 60
197 199 200 194 202 202 213 246 220 289 228 187 194 201 196 214 225 227 225 197 160 133 70 84 65 359 28 290 102 65 101 115 96 131 184 284 325 24 128 123 33 51 71 41
197 199 199 195 186 181 195 225 292 265 176 216 184 195 202 209 216 41 340 18 324 105 97 104 144 170 178 177 110 33 56 82 114 128 143 198 237 157 32 70 53 45 70 50
194 186 185 184 184 174 181 230 220 301 280 219 215 193 202 200 116 115 77 87 321 34 111 102 126 227 166 155 155 164 40 10 141 130 181 287 232 146 181 92 222 81 79 77
177 173 177 171 169 177 176 222 232 207 275 293 262 199 194 158 148 141 149 48 286 1 90 115 184 121 230 113 159 167 158 138 189 99 88 284 180 99 128 193 100 81 62 59
164 167 166 168 182 182 178 215 211 255 306 292 318 142 306 200 155 123 116 165 212 199 99 64 87 66 43 118 196 185 130 172 174 160 208 225 114 111 90 93 100 57 67 48
170 168 171 179 191 179 192 176 161 179 258 276 255 44 317 40 140 124 120 60 245 116 154 144 124 129 124 134 247 115 79 143 110 81 349 86 81 73 75 75 78 73 58 52
175 178 180 187 192 189 183 172 193 278 260 148 332 287 352 304 109 111 137 173 136 108 71 95 124 134 161 198 196 135 198 113 146 137 116 84 50 54 89 72 89 80 66 66
183 184 190 187 181 167 160 183 221 257 303 194 259 169 8 79 55 89 107 137 110 95 69 85 164 150 88 335 69 59 147 172 137 201 78 107 84 76 83 79 83 85 87 77
191 188 182 171 148 148 157 44 260 218 213 285 246 304 18 48 127 83 91 109 78 81 115 184 56 87 103 107 141 69 89 65 65 129 93 101 99 74 72 86 83 82 87 88
176 174 159 155 161 158 130 192 311 90 161 199 233 36 323 333 53 40 29 31 60 94 83 57 123 71 79 108 132 154 102 94 73 98 112 97 92 110 94 94 93 89 84 84
160 159 157 156 114 57 239 259 228 224 166 71 91 344 21 5 31 42 344 51 40 22 89 18 85 20 62 83 113 114 109 96 77 69 83 104 114 110 111 111 105 97 101 110
144 144 121 103 98 211 222 279 280 302 96 103 87 118 182 34 45 15 19 58 64 349 86 99 79 9 120 157 130 118 130 117 120 101 103 109 116 124 119 109 109 114 118 97
137 132 169 187 187 320 314 21 27 24 37 40 79 42 112 55 74 2 73 21 139 113 253 68 72 76 78 38 79 94 104 112 114 109 114 120 125 132 130 119 107 101 98 93
71 77 49 331 345 12 39 52 76 356 50 46 25 114 122 325 127 154 171 153 103 104 254 115 115 162 165 125 94 80 113 117 122 115 130 135 127 116 109 104 100 95 90 86
118 116 110 32 23 19 59 19 5 42 45 40 51 10 76 306 130 113 159 113 54 137 167 99 180 147 129 131 142 137 120 121 124 121 120 118 118 112 110 106 102 94 94 94
91 53 53 13 5 42 67 120 44 62 7 54 49 30 122 19 48 65 120 129 153 94 98 192 188 131 137 150 130 116 114 113 111 97 87 91 89 87 101 103 109 104 88 78
61 52 53 44 49 52 19 56 51 22 300 73 84 26 113 158 61 106 92 329 92 122 142 227 140 156 147 119 119 118 115 101 103 102 102 101 101 95 87 87 93 103 100 97
58 40 63 64 118 89 66 87 65 345 301 43 47 28 59 31 90 60 117 112 177 185 209 115 140 137 133 124 106 103 106 105 105 112 113 114 111 105 100 99 102 104 106 102
46 38 54 356 79 41 38 24 29 355 330 292 76 133 70 46 106 102 144 142 176 133 81 124 132 131 121 116 111 110 106 109 114 117 124 122 120 120 119 117 117 123 124 120
43 24 4 4 42 42 18 352 329 286 37 47 28 54 62 40 44 57 20 47 41 91 104 120 132 119 120 120 136 122 120 120 121 119 107 108 113 120 122 103 120 144 115 113